Time,TemperatureF,DewpointF,PressureIn,WindDirection,WindDirectionDegrees,WindSpeedMPH,WindSpeedGustMPH,Humidity,HourlyPrecipIn,Conditions,Clouds,dailyrainin,SoftwareType,DateUTC
2013-03-21 00:04:00,12.0,-4.3,30.12,North,0,2.2,2.7,47,0.00,,---,0.00,VWS V14.01,2013-03-21 05:04:00,
2013-03-21 00:09:00,11.8,-4.5,30.12,NW,315,0.0,0.0,47,0.00,,---,0.00,VWS V14.01,2013-03-21 05:09:00,
2013-03-21 00:15:00,11.7,-4.7,30.12,NNE,22,0.9,1.3,47,0.00,,---,0.00,VWS V14.01,2013-03-21 05:15:00,
2013-03-21 00:21:00,11.7,-4.7,30.12,NNW,338,1.1,1.6,47,0.00,,---,0.00,VWS V14.01,2013-03-21 05:21:00,
2013-03-21 00:26:00,11.5,-4.8,30.12,NNE,22,2.9,2.9,47,0.00,,---,0.00,VWS V14.01,2013-03-21 05:26:00,
2013-03-21 00:32:00,11.3,-5.0,30.12,NW,315,2.2,3.1,47,0.00,,---,0.00,VWS V14.01,2013-03-21 05:32:00,
2013-03-21 00:37:00,11.3,-5.0,30.12,WSW,248,2.5,3.1,47,0.00,,---,0.00,VWS V14.01,2013-03-21 05:37:00,
2013-03-21 00:43:00,11.1,-5.2,30.12,West,270,1.6,3.1,47,0.00,,---,0.00,VWS V14.01,2013-03-21 05:43:00,
2013-03-21 00:49:00,11.1,-5.2,30.12,WNW,292,2.0,2.2,47,0.00,,---,0.00,VWS V14.01,2013-03-21 05:49:00,
2013-03-21 00:54:00,10.9,-5.3,30.12,NNE,22,2.5,2.5,47,0.00,,---,0.00,VWS V14.01,2013-03-21 05:54:00,
2013-03-21 01:00:00,10.9,-5.3,30.12,WNW,292,1.6,3.1,47,0.00,,---,0.00,VWS V14.01,2013-03-21 06:00:00,
2013-03-21 01:05:00,10.9,-5.3,30.12,WNW,292,0.9,1.6,47,0.00,,---,0.00,VWS V14.01,2013-03-21 06:05:00,
2013-03-21 01:11:00,10.8,-5.5,30.12,NNW,338,2.5,3.8,47,0.00,,---,0.00,VWS V14.01,2013-03-21 06:11:00,
2013-03-21 01:16:00,10.8,-5.5,30.12,West,270,0.9,2.2,47,0.00,,---,0.00,VWS V14.01,2013-03-21 06:16:00,
2013-03-21 01:22:00,10.6,-5.7,30.12,WSW,248,1.6,2.0,47,0.00,,---,0.00,VWS V14.01,2013-03-21 06:22:00,
2013-03-21 01:28:00,10.4,-5.8,30.12,NW,315,2.0,2.5,47,0.00,,---,0.00,VWS V14.01,2013-03-21 06:28:00,
2013-03-21 01:33:00,10.2,-6.0,30.12,NW,315,1.1,2.5,47,0.00,,---,0.00,VWS V14.01,2013-03-21 06:33:00,
2013-03-21 01:39:00,10.2,-6.0,30.12,WNW,292,3.8,3.8,47,0.00,,---,0.00,VWS V14.01,2013-03-21 06:39:00,
2013-03-21 01:44:00,10.2,-6.0,30.12,WNW,292,2.0,2.9,47,0.00,,---,0.00,VWS V14.01,2013-03-21 06:44:00,
2013-03-21 01:50:00,10.2,-6.0,30.12,East,90,2.2,2.9,47,0.00,,---,0.00,VWS V14.01,2013-03-21 06:50:00,
2013-03-21 01:58:00,10.0,-6.2,30.12,North,0,0.0,2.7,47,0.00,,---,0.00,VWS V14.01,2013-03-21 06:58:00,
2013-03-21 02:03:00,10.0,-6.2,30.12,NNW,338,0.0,2.0,47,0.00,,---,0.00,VWS V14.01,2013-03-21 07:03:00,
2013-03-21 02:08:00,9.9,-6.3,30.12,NNE,22,1.6,2.0,47,0.00,,---,0.00,VWS V14.01,2013-03-21 07:08:00,
2013-03-21 02:14:00,9.7,-6.5,30.12,North,0,2.5,2.5,47,0.00,,---,0.00,VWS V14.01,2013-03-21 07:14:00,
2013-03-21 02:20:00,9.7,-6.5,30.12,NNE,22,1.6,3.4,47,0.00,,---,0.00,VWS V14.01,2013-03-21 07:20:00,
2013-03-21 02:25:00,9.7,-6.5,30.12,NNW,338,1.6,1.6,47,0.00,,---,0.00,VWS V14.01,2013-03-21 07:25:00,
2013-03-21 02:31:00,9.5,-6.7,30.12,East,90,0.0,1.1,47,0.00,,---,0.00,VWS V14.01,2013-03-21 07:31:00,
2013-03-21 02:36:00,9.3,-6.8,30.12,North,0,0.0,0.0,47,0.00,,---,0.00,VWS V14.01,2013-03-21 07:36:00,
2013-03-21 02:42:00,9.3,-6.8,30.12,WNW,292,0.0,0.0,47,0.00,,---,0.00,VWS V14.01,2013-03-21 07:42:00,
2013-03-21 02:48:00,9.1,-7.0,30.12,NNW,338,0.0,0.0,47,0.00,,---,0.00,VWS V14.01,2013-03-21 07:48:00,
2013-03-21 02:53:00,9.1,-7.0,30.12,North,0,2.0,2.0,47,0.00,,---,0.00,VWS V14.01,2013-03-21 07:53:00,
2013-03-21 02:59:00,9.0,-7.2,30.09,North,0,3.1,3.4,47,0.00,,---,0.00,VWS V14.01,2013-03-21 07:59:00,
2013-03-21 03:04:00,8.8,-7.3,30.09,NNE,22,2.2,2.2,47,0.00,,---,0.00,VWS V14.01,2013-03-21 08:04:00,
2013-03-21 03:10:00,8.8,-7.3,30.09,North,0,0.9,1.1,47,0.00,,---,0.00,VWS V14.01,2013-03-21 08:10:00,
2013-03-21 03:16:00,8.6,-7.5,30.12,NNW,338,0.0,0.0,47,0.00,,---,0.00,VWS V14.01,2013-03-21 08:16:00,
2013-03-21 17:52:00,28.6,7.9,30.03,WNW,292,3.4,3.4,41,0.00,,---,0.00,VWS V14.01,2013-03-21 22:52:00,
2013-03-21 17:58:00,28.6,7.9,30.03,West,270,4.7,4.7,41,0.00,,---,0.00,VWS V14.01,2013-03-21 22:58:00,
2013-03-21 18:03:00,28.6,7.9,30.03,NNE,22,0.0,0.0,41,0.00,,---,0.00,VWS V14.01,2013-03-21 23:03:00,
2013-03-21 18:08:00,28.6,7.9,30.03,WNW,292,1.6,2.9,41,0.00,,---,0.00,VWS V14.01,2013-03-21 23:08:00,
2013-03-21 18:13:00,28.8,8.0,30.03,NNW,338,2.5,2.9,41,0.00,,---,0.00,VWS V14.01,2013-03-21 23:13:00,
2013-03-21 18:18:00,28.9,8.2,30.03,SSW,202,2.9,2.9,41,0.00,,---,0.00,VWS V14.01,2013-03-21 23:18:00,
2013-03-21 18:24:00,28.6,7.9,30.03,WNW,292,3.4,3.4,41,0.00,,---,0.00,VWS V14.01,2013-03-21 23:24:00,
2013-03-21 18:29:00,28.2,7.6,30.06,NW,315,2.0,2.0,41,0.00,,---,0.00,VWS V14.01,2013-03-21 23:29:00,
2013-03-21 18:34:00,27.9,7.2,30.06,WNW,292,2.2,2.2,41,0.00,,---,0.00,VWS V14.01,2013-03-21 23:34:00,
2013-03-21 18:40:00,27.5,6.9,30.06,NE,45,2.9,2.9,41,0.00,,---,0.00,VWS V14.01,2013-03-21 23:40:00,
2013-03-21 18:45:00,27.0,6.4,30.06,NNE,22,2.5,4.3,41,0.00,,---,0.00,VWS V14.01,2013-03-21 23:45:00,
2013-03-21 18:50:00,26.8,6.2,30.06,East,90,2.2,2.9,41,0.00,,---,0.00,VWS V14.01,2013-03-21 23:50:00,
2013-03-21 18:55:00,26.6,6.6,30.06,North,0,0.0,1.3,42,0.00,,---,0.00,VWS V14.01,2013-03-21 23:55:00,
2013-03-21 19:00:00,26.2,6.3,30.06,NNW,338,0.9,2.2,42,0.00,,---,0.00,VWS V14.01,2013-03-22 00:00:00,
2013-03-21 19:05:00,26.1,6.1,30.06,WNW,292,1.1,1.1,42,0.00,,---,0.00,VWS V14.01,2013-03-22 00:05:00,
2013-03-21 19:12:00,25.7,5.8,30.06,WNW,292,1.1,1.3,42,0.00,,---,0.00,VWS V14.01,2013-03-22 00:12:00,
2013-03-21 19:17:00,25.5,5.6,30.06,WNW,292,0.0,1.3,42,0.00,,---,0.00,VWS V14.01,2013-03-22 00:17:00,
2013-03-21 19:23:00,25.3,5.5,30.06,North,0,2.0,3.1,42,0.00,,---,0.00,VWS V14.01,2013-03-22 00:23:00,
2013-03-21 19:28:00,25.2,5.3,30.06,WNW,292,0.0,1.6,42,0.00,,---,0.00,VWS V14.01,2013-03-22 00:28:00,
2013-03-21 19:34:00,24.8,5.0,30.06,WNW,292,0.0,0.0,42,0.00,,---,0.00,VWS V14.01,2013-03-22 00:34:00,
2013-03-21 19:39:00,24.6,4.8,30.06,NNW,338,2.7,2.9,42,0.00,,---,0.00,VWS V14.01,2013-03-22 00:39:00,
2013-03-21 19:44:00,24.4,5.2,30.06,NNE,22,0.0,0.0,43,0.00,,---,0.00,VWS V14.01,2013-03-22 00:44:00,
2013-03-21 19:49:00,24.4,5.2,30.06,NW,315,2.0,2.2,43,0.00,,---,0.00,VWS V14.01,2013-03-22 00:49:00,
2013-03-21 19:55:00,24.1,4.8,30.06,NNE,22,0.0,0.0,43,0.00,,---,0.00,VWS V14.01,2013-03-22 00:55:00,
2013-03-21 20:00:00,23.9,4.7,30.06,NNE,22,2.5,2.5,43,0.00,,---,0.00,VWS V14.01,2013-03-22 01:00:00,
2013-03-21 20:07:00,23.7,4.5,30.06,NW,315,0.0,1.6,43,0.00,,---,0.00,VWS V14.01,2013-03-22 01:07:00,
2013-03-21 20:12:00,23.7,4.5,30.06,WNW,292,1.6,1.6,43,0.00,,---,0.00,VWS V14.01,2013-03-22 01:12:00,
2013-03-21 20:17:00,23.5,4.3,30.06,NNE,22,0.0,0.0,43,0.00,,---,0.00,VWS V14.01,2013-03-22 01:17:00,
2013-03-21 20:23:00,23.4,4.2,30.06,West,270,0.0,0.0,43,0.00,,---,0.00,VWS V14.01,2013-03-22 01:23:00,
2013-03-21 20:28:00,23.4,4.2,30.06,North,0,0.0,0.0,43,0.00,,---,0.00,VWS V14.01,2013-03-22 01:28:00,
2013-03-21 20:33:00,23.2,4.5,30.06,NNW,338,0.9,1.3,44,0.00,,---,0.00,VWS V14.01,2013-03-22 01:33:00,
2013-03-21 20:38:00,23.0,4.3,30.06,NNW,338,0.0,0.0,44,0.00,,---,0.00,VWS V14.01,2013-03-22 01:38:00,
2013-03-21 20:44:00,22.8,4.2,30.06,North,0,0.0,0.0,44,0.00,,---,0.00,VWS V14.01,2013-03-22 01:44:00,
2013-03-21 20:49:00,22.6,4.0,30.06,NNE,22,0.0,0.9,44,0.00,,---,0.00,VWS V14.01,2013-03-22 01:49:00,
2013-03-21 20:54:00,22.6,4.0,30.06,NW,315,0.0,0.0,44,0.00,,---,0.00,VWS V14.01,2013-03-22 01:54:00,
2013-03-21 20:59:00,22.5,3.9,30.06,West,270,0.0,0.0,44,0.00,,---,0.00,VWS V14.01,2013-03-22 01:59:00,
2013-03-21 21:04:00,22.5,4.3,30.06,North,0,0.0,0.0,45,0.00,,---,0.00,VWS V14.01,2013-03-22 02:04:00,
2013-03-21 21:10:00,22.3,4.2,30.06,NNE,22,0.0,0.0,45,0.00,,---,0.00,VWS V14.01,2013-03-22 02:10:00,
2013-03-21 21:16:00,22.1,4.0,30.06,NNE,22,0.0,0.0,45,0.00,,---,0.00,VWS V14.01,2013-03-22 02:16:00,
2013-03-21 21:21:00,21.9,3.8,30.06,NW,315,0.0,0.0,45,0.00,,---,0.00,VWS V14.01,2013-03-22 02:21:00,
2013-03-21 21:27:00,21.9,3.8,30.06,NW,315,0.0,0.0,45,0.00,,---,0.00,VWS V14.01,2013-03-22 02:27:00,
2013-03-21 21:32:00,21.7,3.7,30.06,NW,315,0.0,0.0,45,0.00,,---,0.00,VWS V14.01,2013-03-22 02:32:00,
2013-03-21 21:37:00,21.6,3.5,30.06,NW,315,0.0,0.0,45,0.00,,---,0.00,VWS V14.01,2013-03-22 02:37:00,
2013-03-21 21:43:00,21.4,3.8,30.06,NW,315,0.0,0.0,46,0.00,,---,0.00,VWS V14.01,2013-03-22 02:43:00,
2013-03-21 21:48:00,21.2,3.7,30.06,NNW,338,0.0,0.0,46,0.00,,---,0.00,VWS V14.01,2013-03-22 02:48:00,
2013-03-21 21:54:00,21.2,4.1,30.06,NNW,338,0.0,0.0,47,0.00,,---,0.00,VWS V14.01,2013-03-22 02:54:00,
2013-03-21 21:59:00,21.2,4.1,30.06,North,0,0.0,0.0,47,0.00,,---,0.00,VWS V14.01,2013-03-22 02:59:00,
2013-03-21 22:04:00,21.0,4.0,30.06,NNW,338,0.0,0.0,47,0.00,,---,0.00,VWS V14.01,2013-03-22 03:04:00,
2013-03-21 22:09:00,21.0,4.0,30.06,North,0,0.0,0.0,47,0.00,,---,0.00,VWS V14.01,2013-03-22 03:09:00,
2013-03-21 22:15:00,20.8,3.8,30.06,North,0,0.0,0.0,47,0.00,,---,0.00,VWS V14.01,2013-03-22 03:15:00,
2013-03-21 22:20:00,20.8,3.8,30.06,NNW,338,0.0,0.0,47,0.00,,---,0.00,VWS V14.01,2013-03-22 03:20:00,
2013-03-21 22:25:00,20.7,4.1,30.06,NNW,338,0.0,0.0,48,0.00,,---,0.00,VWS V14.01,2013-03-22 03:25:00,
2013-03-21 22:30:00,20.7,4.1,30.09,NNW,338,0.0,0.0,48,0.00,,---,0.00,VWS V14.01,2013-03-22 03:30:00,
2013-03-21 22:37:00,20.5,3.9,30.09,WNW,292,0.0,1.6,48,0.00,,---,0.00,VWS V14.01,2013-03-22 03:37:00,
2013-03-21 22:43:00,20.3,3.8,30.09,WNW,292,0.0,0.0,48,0.00,,---,0.00,VWS V14.01,2013-03-22 03:43:00,
2013-03-21 22:49:00,20.3,3.8,30.09,WNW,292,0.0,0.0,48,0.00,,---,0.00,VWS V14.01,2013-03-22 03:49:00,
2013-03-21 22:54:00,20.3,3.8,30.09,WNW,292,0.0,0.0,48,0.00,,---,0.00,VWS V14.01,2013-03-22 03:54:00,
2013-03-21 23:00:00,20.3,4.2,30.09,WNW,292,0.0,0.0,49,0.00,,---,0.00,VWS V14.01,2013-03-22 04:00:00,
2013-03-21 23:01:00,20.3,4.2,30.09,WNW,292,0.0,0.0,49,0.00,,---,0.00,VWS V14.01,2013-03-22 04:01:00,
2013-03-21 23:04:00,20.1,4.0,30.09,NW,315,0.0,0.0,49,0.00,,---,0.00,VWS V14.01,2013-03-22 04:04:00,
2013-03-21 23:08:00,20.1,4.0,30.09,NW,315,0.0,0.0,49,0.00,,---,0.00,VWS V14.01,2013-03-22 04:08:00,
2013-03-21 23:13:00,19.9,3.9,30.09,NW,315,0.0,0.0,49,0.00,,---,0.00,VWS V14.01,2013-03-22 04:13:00,
2013-03-21 23:18:00,19.8,3.7,30.09,NW,315,0.0,0.0,49,0.00,,---,0.00,VWS V14.01,2013-03-22 04:18:00,
2013-03-21 23:23:00,19.8,3.7,30.09,NW,315,0.0,0.0,49,0.00,,---,0.00,VWS V14.01,2013-03-22 04:23:00,
2013-03-21 23:29:00,19.6,3.5,30.09,NW,315,0.0,0.0,49,0.00,,---,0.00,VWS V14.01,2013-03-22 04:29:00,
2013-03-21 23:34:00,19.4,3.8,30.09,NW,315,0.0,0.0,50,0.00,,---,0.00,VWS V14.01,2013-03-22 04:34:00,
2013-03-21 23:39:00,19.2,3.6,30.09,WNW,292,0.0,0.0,50,0.00,,---,0.00,VWS V14.01,2013-03-22 04:39:00,
2013-03-21 23:44:00,19.2,3.6,30.09,WNW,292,0.0,0.0,50,0.00,,---,0.00,VWS V14.01,2013-03-22 04:44:00,
2013-03-21 23:50:00,19.0,3.5,30.09,WNW,292,0.0,0.0,50,0.00,,---,0.00,VWS V14.01,2013-03-22 04:50:00,
2013-03-21 23:55:00,18.9,3.3,30.09,WNW,292,0.0,0.0,50,0.00,,---,0.00,VWS V14.01,2013-03-22 04:55:00,